Simultaneous Nadir Overpasses (SNOs) Predictions

Prediction of SNOs over PacNW region [( 10.00, 139.50) to ( 22.70, 165.60)] between NOAA-19 and NPP Satellites:

Table of predicted SNOs over PacNW region for the next 30.0 days since TLE Epoch: 4/19/2013
Index Date (NOAA-19) Time (NOAA-19) NOAA-19 Lat,Lon Date (NPP) Time (NPP) NPP Lat,Lon Distance(km) Time Diff (sec)
1 04/25/2013 03:12:51 10.06, 154.53 04/25/2013 03:16:28 8.51, 150.55 469.61 217
2 04/25/2013 15:49:33 21.01, 150.37 04/25/2013 15:49:05 21.65, 147.19 336.80 28
3 04/26/2013 03:05:32 22.69, 154.21 04/26/2013 03:01:54 24.23, 151.55 320.72 218
4 05/07/2013 15:20:00 22.60, 158.11 05/07/2013 15:23:16 23.55, 154.01 432.71 196
5 05/08/2013 02:36:29 22.65, 161.55 05/08/2013 02:36:01 22.04, 158.45 326.40 28
6 05/08/2013 15:12:38 10.05, 157.82 05/08/2013 15:09:02 6.64, 154.76 507.01 216




NCC Satellite Simultaneous Nadir Overpasses (SNOs) Prediction Service
